Weather in Sober mnt.

Russia / Krasnodar Krai     44°41′41″N   38°33′55″E
temp.,
°C
wind,
m/s
gust,
m/s
humid.,
%
clouds,
%
prec.,
mm/h
press.,
hPa
HPBL,
m
16 may, sun
sun1600:00+16nw019351 0.1 101211
03:00+15nnw0196100 0.3 101111
06:00+16n0197100 0.0 101031
09:00+21ne248599 0.0 1009444
12:00+24ene4774100 0.0 1006760
15:00+27ene56678 0.0 10051207
18:00+25ene48790 0.0 1003630
21:00+19se119470 0.0 100211
17 may, mon
mon1700:00+18ssw259779 0.0 1002111
03:00+19sse61766100 0.0 1002783
06:00+15sw2890100 0.0 1005334
09:00+19sw2563100 0.0 1006553
12:00+23sw2453100 0.0 10081082
15:00+22wsw455543 0.0 10081107
18:00+20wsw13717 0.0 1009403
21:00+13s229451 0.0 101239
18 may, tue
tue1800:00+12ssw239735 0.0 101182
03:00+12ssw239633 0.0 101177
06:00+13s239488 0.0 1012150
09:00+18ssw366660 0.0 1012819
12:00+21ssw56540 0.0 10121319
15:00+22ssw465395 0.0 10111303
18:00+19ssw2570100 0.0 1011410
21:00+13ssw3393100 0.1 101267
19 may, wed
wed1900:00+14ssw259490 0.3 1012216
03:00+14sw259555 0.4 1013272
06:00+13ssw24946 0.1 101590
09:00+18sw35640 0.1 1016905
12:00+20sw57510 0.0 10171734
15:00+20sw46520 0.0 10171597
18:00+18ssw24630 0.0 1017788
21:00+12ssw22890 0.0 101712
20 may, thu
thu2000:00+10se11860 0.0 101610
03:00+10se11890 0.0 101511
06:00+11e11893 0.0 101421
09:00+18ene34662 0.0 1012394
12:00+24e56531 0.0 1010830
15:00+25ene5753100 0.0 1008763
18:00+23ene310756 0.0 1007554
21:00+18e119547 0.0 100615